• In Germany
  • List of Countries
  • For 7 days
  • Water Temperature
  • Satellite Maps
  • Weather Map
  • Weather Widgets
  • user-avatar
    Login

    Hourly Weather Makadi Bey

    Today, 15 November, Thursday

    Time Temperature Precipitation Wind Pressure Humidity
    00:00 +16°C° 0.3 mm 3 mps 704 mmHg 60%
    01:00 +15°C° 0.3 mm 2 mps 704 mmHg 62%
    02:00 +15°C° 0.3 mm 2 mps 704 mmHg 63%
    03:00 +15°C° 0.2 mm 2 mps 704 mmHg 63%
    04:00 +14°C° 0.2 mm 2 mps 704 mmHg 63%
    05:00 +14°C° 0.2 mm 2 mps 704 mmHg 64%
    06:00 +15°C° 0 mm 2 mps 705 mmHg 60%
    07:00 +14°C° 0 mm 3 mps 705 mmHg 57%
    08:00 +16°C° 0 mm 3 mps 706 mmHg 53%
    09:00 +17°C° 0 mm 3 mps 706 mmHg 49%
    10:00 +19°C° 0 mm 3 mps 706 mmHg 44%
    11:00 +20°C° 0 mm 4 mps 707 mmHg 40%
    12:00 +21°C° 0 mm 4 mps 706 mmHg 37%
    13:00 +22°C° 0 mm 4 mps 706 mmHg 35%
    14:00 +22°C° 0 mm 4 mps 706 mmHg 33%
    15:00 +22°C° 0 mm 4 mps 706 mmHg 35%
    16:00 +21°C° 0 mm 4 mps 706 mmHg 36%
    17:00 +21°C° 0 mm 4 mps 706 mmHg 38%
    18:00 +20°C° 0 mm 3 mps 707 mmHg 41%
    19:00 +19°C° 0 mm 3 mps 707 mmHg 45%
    20:00 +19°C° 0 mm 2 mps 707 mmHg 49%
    21:00 +18°C° 0 mm 2 mps 707 mmHg 52%
    22:00 +18°C° 0 mm 2 mps 708 mmHg 55%
    23:00 +17°C° 0 mm 2 mps 708 mmHg 57%

    Tomorrow, 16 November, Friday

    Time Temperature Precipitation Wind Pressure Humidity
    00:00 +18°C° 0 mm 1 mps 708 mmHg 59%
    01:00 +16°C° 0 mm 1 mps 707 mmHg 61%
    02:00 +16°C° 0 mm 1 mps 707 mmHg 63%
    03:00 +15°C° 0 mm 1 mps 707 mmHg 64%
    04:00 +15°C° 0 mm 1 mps 708 mmHg 65%
    05:00 +15°C° 0 mm 1 mps 708 mmHg 67%
    06:00 +16°C° 0 mm 1 mps 708 mmHg 63%
    07:00 +18°C° 0 mm 1 mps 709 mmHg 59%
    08:00 +19°C° 0 mm 1 mps 710 mmHg 55%
    09:00 +20°C° 0 mm 1 mps 710 mmHg 52%
    10:00 +21°C° 0 mm 1 mps 710 mmHg 48%
    11:00 +22°C° 0 mm 1 mps 710 mmHg 44%
    12:00 +23°C° 0 mm 1 mps 710 mmHg 41%
    13:00 +23°C° 0 mm 2 mps 710 mmHg 38%
    14:00 +24°C° 0 mm 2 mps 709 mmHg 35%
    15:00 +23°C° 0 mm 2 mps 709 mmHg 37%
    16:00 +23°C° 0 mm 2 mps 709 mmHg 40%
    17:00 +21°C° 0 mm 2 mps 709 mmHg 42%
    18:00 +20°C° 0 mm 2 mps 710 mmHg 45%
    19:00 +20°C° 0 mm 2 mps 710 mmHg 48%
    20:00 +19°C° 0 mm 2 mps 710 mmHg 51%
    21:00 +19°C° 0 mm 2 mps 710 mmHg 55%
    22:00 +18°C° 0 mm 2 mps 710 mmHg 59%
    23:00 +18°C° 0 mm 2 mps 710 mmHg 63%

    Day after tomorrow, 17 November, Saturday

    Time Temperature Precipitation Wind Pressure Humidity
    00:00 +17°C° 0 mm 2 mps 710 mmHg 65%
    01:00 +16°C° 0 mm 2 mps 709 mmHg 67%
    02:00 +16°C° 0 mm 1 mps 709 mmHg 69%
    03:00 +16°C° 0 mm 1 mps 709 mmHg 68%
    04:00 +15°C° 0 mm 1 mps 709 mmHg 68%
    05:00 +15°C° 0 mm 1 mps 709 mmHg 68%
    06:00 +16°C° 0 mm 1 mps 709 mmHg 61%
    07:00 +17°C° 0 mm 2 mps 710 mmHg 55%
    08:00 +18°C° 0 mm 2 mps 710 mmHg 48%
    09:00 +20°C° 0 mm 2 mps 710 mmHg 42%
    10:00 +21°C° 0 mm 2 mps 710 mmHg 36%
    11:00 +24°C° 0 mm 2 mps 711 mmHg 29%
    12:00 +24°C° 0 mm 2 mps 710 mmHg 27%
    13:00 +25°C° 0 mm 2 mps 710 mmHg 26%
    14:00 +26°C° 0 mm 2 mps 709 mmHg 24%
    15:00 +25°C° 0 mm 3 mps 709 mmHg 27%
    16:00 +24°C° 0 mm 3 mps 709 mmHg 30%
    17:00 +22°C° 0 mm 3 mps 708 mmHg 33%
    18:00 +21°C° 0 mm 2 mps 709 mmHg 37%
    19:00 +20°C° 0 mm 2 mps 709 mmHg 42%
    20:00 +19°C° 0 mm 2 mps 709 mmHg 46%
    21:00 +19°C° 0 mm 2 mps 709 mmHg 48%
    22:00 +18°C° 0 mm 2 mps 708 mmHg 49%
    23:00 +17°C° 0 mm 2 mps 708 mmHg 51%

    18 November, Sunday

    Time Temperature Precipitation Wind Pressure Humidity
    00:00 +17°C° 0 mm 2 mps 708 mmHg 47%
    01:00 +17°C° 0 mm 2 mps 708 mmHg 44%
    02:00 +16°C° 0 mm 2 mps 707 mmHg 41%
    03:00 +16°C° 0 mm 2 mps 707 mmHg 38%
    04:00 +15°C° 0 mm 2 mps 707 mmHg 36%
    05:00 +15°C° 0 mm 1 mps 707 mmHg 33%
    06:00 +18°C° 0 mm 1 mps 707 mmHg 29%
    07:00 +20°C° 0 mm 1 mps 708 mmHg 26%
    08:00 +21°C° 0 mm 1 mps 709 mmHg 22%
    09:00 +23°C° 0 mm 1 mps 709 mmHg 21%
    10:00 +24°C° 0 mm 1 mps 709 mmHg 19%
    11:00 +26°C° 0 mm 1 mps 709 mmHg 18%
    12:00 +26°C° 0 mm 2 mps 708 mmHg 19%
    13:00 +27°C° 0 mm 2 mps 708 mmHg 19%
    14:00 +27°C° 0 mm 2 mps 707 mmHg 20%
    15:00 +26°C° 0 mm 2 mps 707 mmHg 22%
    16:00 +25°C° 0 mm 2 mps 707 mmHg 25%
    17:00 +24°C° 0 mm 2 mps 706 mmHg 27%
    18:00 +23°C° 0 mm 2 mps 707 mmHg 29%
    19:00 +22°C° 0 mm 1 mps 707 mmHg 31%
    20:00 +21°C° 0 mm 1 mps 707 mmHg 33%
    21:00 +21°C° 0 mm 1 mps 707 mmHg 33%
    22:00 +20°C° 0 mm 1 mps 706 mmHg 33%
    23:00 +20°C° 0 mm 1 mps 706 mmHg 33%

    19 November, Monday

    Time Temperature Precipitation Wind Pressure Humidity
    00:00 +20°C° 0 mm 1 mps 706 mmHg 32%
    01:00 +19°C° 0 mm 1 mps 706 mmHg 31%
    02:00 +18°C° 0 mm 2 mps 705 mmHg 30%
    03:00 +18°C° 0 mm 1 mps 705 mmHg 30%
    04:00 +18°C° 0 mm 1 mps 705 mmHg 31%
    05:00 +16°C° 0 mm 1 mps 705 mmHg 31%
    06:00 +19°C° 0 mm 1 mps 706 mmHg 28%
    07:00 +20°C° 0 mm 1 mps 707 mmHg 25%
    08:00 +22°C° 0 mm 1 mps 707 mmHg 22%
    09:00 +23°C° 0 mm 2 mps 708 mmHg 20%
    10:00 +25°C° 0 mm 2 mps 708 mmHg 19%
    11:00 +26°C° 0 mm 2 mps 708 mmHg 17%
    12:00 +26°C° 0 mm 3 mps 708 mmHg 16%
    13:00 +27°C° 0 mm 3 mps 707 mmHg 15%
    14:00 +27°C° 0 mm 4 mps 707 mmHg 14%
    15:00 +26°C° 0 mm 4 mps 707 mmHg 15%
    16:00 +25°C° 0 mm 3 mps 707 mmHg 16%
    17:00 +24°C° 0 mm 3 mps 707 mmHg 18%
    18:00 +22°C° 0 mm 3 mps 707 mmHg 20%
    19:00 +21°C° 0 mm 2 mps 707 mmHg 22%
    20:00 +20°C° 0 mm 2 mps 708 mmHg 24%
    21:00 +19°C° 0 mm 2 mps 708 mmHg 25%
    22:00 +18°C° 0 mm 2 mps 708 mmHg 26%
    23:00 +19°C° 0 mm 1 mps 708 mmHg 27%

    20 November, Tuesday

    Time Temperature Precipitation Wind Pressure Humidity
    00:00 +18°C° 0 mm 1 mps 707 mmHg 26%
    01:00 +18°C° 0 mm 1 mps 707 mmHg 26%
    02:00 +16°C° 0 mm 1 mps 707 mmHg 26%
    03:00 +16°C° 0 mm 1 mps 707 mmHg 25%
    04:00 +16°C° 0 mm 1 mps 707 mmHg 24%
    05:00 +15°C° 0 mm 1 mps 707 mmHg 23%
    06:00 +18°C° 0 mm 1 mps 708 mmHg 20%
    07:00 +20°C° 0 mm 1 mps 709 mmHg 17%
    08:00 +22°C° 0 mm 1 mps 709 mmHg 14%
    09:00 +24°C° 0 mm 2 mps 709 mmHg 13%
    10:00 +25°C° 0 mm 2 mps 709 mmHg 12%
    11:00 +26°C° 0 mm 2 mps 710 mmHg 11%
    12:00 +27°C° 0 mm 2 mps 709 mmHg 10%
    13:00 +28°C° 0 mm 2 mps 709 mmHg 10%
    14:00 +28°C° 0 mm 3 mps 709 mmHg 10%
    15:00 +27°C° 0 mm 2 mps 708 mmHg 12%
    16:00 +25°C° 0 mm 2 mps 708 mmHg 14%
    17:00 +24°C° 0 mm 2 mps 708 mmHg 16%
    18:00 +23°C° 0 mm 1 mps 708 mmHg 18%
    19:00 +22°C° 0 mm 1 mps 708 mmHg 20%
    20:00 +21°C° 0 mm 1 mps 709 mmHg 21%
    21:00 +21°C° 0 mm 1 mps 709 mmHg 21%
    22:00 +21°C° 0 mm 1 mps 708 mmHg 22%
    23:00 +19°C° 0 mm 2 mps 708 mmHg 22%
    Show more